When you browse on this site, cookies collect data to enhance your experience and personalize the content and advertising you see.
Visit our Privacy Policy to learn more. By continuing to use the site, you agree to this use of cookies and data.
  • In Latvia
  • List of Countries
  • For 7 days
  • Water Temperature
  • Weather Map
  • Weather Widgets
  • user-avatar
    Login

    Hourly Weather Naru

    Today, 18 September, Wednesday

    Time Temperature Precipitation Wind Pressure Humidity
    00:00 +26°C° 0 mm 1 mps 740 mmHg 91%
    01:00 +25°C° 0 mm 1 mps 740 mmHg 94%
    02:00 +25°C° 0 mm 1 mps 740 mmHg 94%
    03:00 +25°C° 0 mm 1 mps 740 mmHg 93%
    04:00 +25°C° 0 mm 1 mps 740 mmHg 93%
    05:00 +26°C° 0 mm 1 mps 740 mmHg 90%
    06:00 +26°C° 0 mm 1 mps 741 mmHg 87%
    07:00 +27°C° 0 mm 1 mps 741 mmHg 83%
    08:00 +29°C° 0 mm 1 mps 742 mmHg 74%
    09:00 +31°C° 0 mm 2 mps 742 mmHg 65%
    10:00 +34°C° 0 mm 2 mps 742 mmHg 56%
    11:00 +35°C° 0 mm 2 mps 741 mmHg 54%
    12:00 +35°C° 0 mm 3 mps 741 mmHg 52%
    13:00 +36°C° 0 mm 3 mps 740 mmHg 50%
    14:00 +35°C° 0 mm 3 mps 740 mmHg 55%
    15:00 +33°C° 0 mm 3 mps 739 mmHg 60%
    16:00 +31°C° 0 mm 2 mps 739 mmHg 65%
    17:00 +30°C° 0 mm 2 mps 740 mmHg 69%
    18:00 +29°C° 0 mm 2 mps 740 mmHg 73%
    19:00 +28°C° 0 mm 2 mps 741 mmHg 77%
    20:00 +28°C° 0 mm 2 mps 741 mmHg 77%
    21:00 +28°C° 0 mm 2 mps 741 mmHg 78%
    22:00 +28°C° 0 mm 2 mps 742 mmHg 78%
    23:00 +27°C° 0 mm 2 mps 741 mmHg 80%

    Tomorrow, 19 September, Thursday

    Time Temperature Precipitation Wind Pressure Humidity
    00:00 +27°C° 0 mm 1 mps 741 mmHg 81%
    01:00 +27°C° 0 mm 1 mps 741 mmHg 83%
    02:00 +27°C° 0 mm 1 mps 741 mmHg 84%
    03:00 +27°C° 0 mm 1 mps 741 mmHg 85%
    04:00 +26°C° 0 mm 1 mps 741 mmHg 87%
    05:00 +26°C° 0.3 mm 1 mps 741 mmHg 87%
    06:00 +27°C° 0.3 mm 1 mps 741 mmHg 88%
    07:00 +27°C° 0.3 mm 1 mps 742 mmHg 88%
    08:00 +28°C° 0.9 mm 1 mps 742 mmHg 87%
    09:00 +29°C° 0.9 mm 1 mps 742 mmHg 85%
    10:00 +30°C° 0.9 mm 2 mps 742 mmHg 84%
    11:00 +31°C° 1.4 mm 2 mps 742 mmHg 80%
    12:00 +32°C° 1.4 mm 2 mps 741 mmHg 77%
    13:00 +34°C° 1.4 mm 2 mps 740 mmHg 73%
    14:00 +32°C° 0.8 mm 2 mps 740 mmHg 73%
    15:00 +32°C° 0.8 mm 2 mps 739 mmHg 73%
    16:00 +32°C° 0.8 mm 2 mps 739 mmHg 74%
    17:00 +30°C° 0 mm 2 mps 739 mmHg 77%
    18:00 +29°C° 0 mm 2 mps 740 mmHg 80%
    19:00 +27°C° 0 mm 2 mps 740 mmHg 83%
    20:00 +27°C° 0 mm 2 mps 741 mmHg 85%
    21:00 +26°C° 0 mm 1 mps 741 mmHg 86%
    22:00 +26°C° 0 mm 1 mps 742 mmHg 88%
    23:00 +26°C° 0 mm 1 mps 742 mmHg 89%

    Day after tomorrow, 20 September, Friday

    Time Temperature Precipitation Wind Pressure Humidity
    00:00 +26°C° 0 mm 1 mps 742 mmHg 89%
    01:00 +24°C° 0 mm 0 mps 741 mmHg 90%
    02:00 +23°C° 0.2 mm 0 mps 741 mmHg 91%
    03:00 +23°C° 0.2 mm 0 mps 741 mmHg 93%
    04:00 +23°C° 0.2 mm 0 mps 741 mmHg 94%
    05:00 +23°C° 0.2 mm 0 mps 741 mmHg 94%
    06:00 +24°C° 0.2 mm 0 mps 741 mmHg 93%
    07:00 +24°C° 0.2 mm 0 mps 742 mmHg 93%
    08:00 +25°C° 0.5 mm 0 mps 742 mmHg 87%
    09:00 +29°C° 0.5 mm 1 mps 742 mmHg 81%
    10:00 +31°C° 0.5 mm 1 mps 742 mmHg 74%
    11:00 +31°C° 0.3 mm 1 mps 741 mmHg 72%
    12:00 +32°C° 0.3 mm 2 mps 741 mmHg 69%
    13:00 +32°C° 0.3 mm 2 mps 740 mmHg 66%
    14:00 +32°C° 0.1 mm 2 mps 739 mmHg 65%
    15:00 +32°C° 0.1 mm 2 mps 739 mmHg 65%
    16:00 +32°C° 0.1 mm 2 mps 738 mmHg 64%
    17:00 +31°C° 0 mm 2 mps 739 mmHg 69%
    18:00 +29°C° 0 mm 2 mps 739 mmHg 75%
    19:00 +27°C° 0 mm 2 mps 739 mmHg 80%
    20:00 +27°C° 0 mm 2 mps 740 mmHg 82%
    21:00 +26°C° 0 mm 1 mps 741 mmHg 85%
    22:00 +26°C° 0 mm 1 mps 741 mmHg 87%
    23:00 +25°C° 0 mm 1 mps 741 mmHg 88%

    21 September, Saturday

    Time Temperature Precipitation Wind Pressure Humidity
    00:00 +25°C° 0 mm 1 mps 741 mmHg 89%
    01:00 +25°C° 0 mm 1 mps 741 mmHg 90%
    02:00 +25°C° 0 mm 1 mps 740 mmHg 90%
    03:00 +25°C° 0 mm 1 mps 740 mmHg 91%
    04:00 +25°C° 0 mm 1 mps 740 mmHg 91%
    05:00 +25°C° 0 mm 1 mps 740 mmHg 89%
    06:00 +26°C° 0 mm 1 mps 741 mmHg 87%
    07:00 +26°C° 0 mm 1 mps 741 mmHg 85%
    08:00 +28°C° 0 mm 1 mps 741 mmHg 75%
    09:00 +30°C° 0 mm 2 mps 742 mmHg 65%
    10:00 +34°C° 0 mm 2 mps 742 mmHg 55%
    11:00 +34°C° 0.1 mm 2 mps 741 mmHg 52%
    12:00 +35°C° 0.1 mm 3 mps 741 mmHg 49%
    13:00 +36°C° 0.1 mm 3 mps 740 mmHg 45%
    14:00 +35°C° 0 mm 3 mps 740 mmHg 50%
    15:00 +34°C° 0 mm 3 mps 740 mmHg 54%
    16:00 +33°C° 0 mm 3 mps 739 mmHg 58%
    17:00 +30°C° 0 mm 3 mps 740 mmHg 64%
    18:00 +29°C° 0 mm 2 mps 741 mmHg 71%
    19:00 +27°C° 0 mm 2 mps 741 mmHg 77%
    20:00 +26°C° 0 mm 2 mps 742 mmHg 79%
    21:00 +26°C° 0 mm 2 mps 742 mmHg 80%
    22:00 +26°C° 0 mm 2 mps 743 mmHg 82%
    23:00 +25°C° 0 mm 1 mps 743 mmHg 82%

    22 September, Sunday

    Time Temperature Precipitation Wind Pressure Humidity
    00:00 +25°C° 0 mm 1 mps 742 mmHg 82%
    01:00 +25°C° 0 mm 1 mps 742 mmHg 82%
    02:00 +25°C° 0 mm 1 mps 742 mmHg 84%
    03:00 +24°C° 0 mm 1 mps 742 mmHg 85%
    04:00 +24°C° 0 mm 1 mps 742 mmHg 87%
    05:00 +25°C° 0 mm 1 mps 742 mmHg 86%
    06:00 +25°C° 0 mm 1 mps 743 mmHg 84%
    07:00 +26°C° 0 mm 1 mps 743 mmHg 83%
    08:00 +28°C° 0 mm 2 mps 744 mmHg 74%
    09:00 +30°C° 0 mm 2 mps 744 mmHg 64%
    10:00 +33°C° 0 mm 3 mps 744 mmHg 55%
    11:00 +33°C° 0 mm 3 mps 744 mmHg 55%
    12:00 +33°C° 0 mm 3 mps 743 mmHg 54%
    13:00 +33°C° 0 mm 4 mps 743 mmHg 54%
    14:00 +33°C° 0.1 mm 4 mps 742 mmHg 57%
    15:00 +32°C° 0.1 mm 4 mps 742 mmHg 60%
    16:00 +30°C° 0.1 mm 4 mps 742 mmHg 63%
    17:00 +29°C° 0 mm 3 mps 742 mmHg 68%
    18:00 +27°C° 0 mm 3 mps 743 mmHg 74%
    19:00 +25°C° 0 mm 2 mps 743 mmHg 79%
    20:00 +25°C° 0 mm 2 mps 744 mmHg 80%
    21:00 +25°C° 0 mm 2 mps 744 mmHg 80%
    22:00 +24°C° 0 mm 1 mps 745 mmHg 81%
    23:00 +24°C° 0 mm 1 mps 745 mmHg 81%

    23 September, Monday

    Time Temperature Precipitation Wind Pressure Humidity
    00:00 +23°C° 0 mm 1 mps 744 mmHg 82%
    01:00 +23°C° 0 mm 1 mps 744 mmHg 83%
    02:00 +23°C° 0 mm 1 mps 744 mmHg 84%
    03:00 +23°C° 0 mm 1 mps 744 mmHg 84%
    04:00 +23°C° 0 mm 1 mps 744 mmHg 85%
    05:00 +24°C° 0 mm 1 mps 744 mmHg 83%
    06:00 +24°C° 0 mm 1 mps 745 mmHg 80%
    07:00 +25°C° 0 mm 2 mps 745 mmHg 78%
    08:00 +27°C° 0 mm 2 mps 745 mmHg 69%
    09:00 +29°C° 0 mm 3 mps 745 mmHg 60%
    10:00 +31°C° 0 mm 3 mps 746 mmHg 51%
    11:00 +33°C° 0 mm 3 mps 745 mmHg 49%
    12:00 +34°C° 0 mm 3 mps 744 mmHg 48%
    13:00 +34°C° 0 mm 4 mps 744 mmHg 46%
    14:00 +33°C° 0 mm 4 mps 743 mmHg 50%
    15:00 +32°C° 0 mm 4 mps 743 mmHg 53%
    16:00 +30°C° 0 mm 4 mps 743 mmHg 57%
    17:00 +29°C° 0 mm 4 mps 743 mmHg 63%
    18:00 +27°C° 0 mm 3 mps 743 mmHg 69%
    19:00 +25°C° 0 mm 3 mps 744 mmHg 76%
    20:00 +25°C° 0 mm 3 mps 744 mmHg 77%
    21:00 +25°C° 0 mm 2 mps 745 mmHg 78%
    22:00 +24°C° 0 mm 2 mps 745 mmHg 80%
    23:00 +24°C° 0 mm 2 mps 745 mmHg 81%
    Show more